Year,Month,Day,Hour,Minute,Value (Times are PST for temperature in C)
2008,09,15,00,00,12.00
2008,09,15,00,01,12.00
2008,09,15,00,02,11.90
2008,09,15,00,03,11.90
2008,09,15,00,04,11.90
2008,09,15,00,05,11.90
2008,09,15,00,06,11.90
2008,09,15,00,07,11.90
2008,09,15,00,08,11.90
2008,09,15,00,09,11.80
2008,09,15,00,10,11.80
2008,09,15,00,11,11.80
2008,09,15,00,12,11.80
2008,09,15,00,13,11.80
2008,09,15,00,14,11.80
2008,09,15,00,15,11.80
2008,09,15,00,16,11.80
2008,09,15,00,17,11.80
2008,09,15,00,18,11.80
2008,09,15,00,19,11.80
2008,09,15,00,20,11.80
2008,09,15,00,21,11.80
2008,09,15,00,22,11.70
2008,09,15,00,23,11.70
2008,09,15,00,24,11.70
2008,09,15,00,25,11.70
2008,09,15,00,26,11.60
2008,09,15,00,27,11.60
2008,09,15,00,28,11.60
2008,09,15,00,29,11.60
2008,09,15,00,30,11.60
2008,09,15,00,31,11.60
2008,09,15,00,32,11.60
2008,09,15,00,33,11.60
2008,09,15,00,34,11.60
2008,09,15,00,35,11.60
2008,09,15,00,36,11.50
2008,09,15,00,37,11.40
2008,09,15,00,38,11.40
2008,09,15,00,39,11.40
2008,09,15,00,40,11.40
2008,09,15,00,41,11.40
2008,09,15,00,42,11.40
2008,09,15,00,43,11.40
2008,09,15,00,44,11.40
2008,09,15,00,45,11.40
2008,09,15,00,46,11.40
2008,09,15,00,47,11.40
2008,09,15,00,48,11.40
2008,09,15,00,49,11.30
2008,09,15,00,50,11.30
2008,09,15,00,51,11.30
2008,09,15,00,52,11.30
2008,09,15,00,53,11.30
2008,09,15,00,54,11.30
2008,09,15,00,55,11.30
2008,09,15,00,56,11.30
2008,09,15,00,57,11.30
2008,09,15,00,58,11.30
2008,09,15,00,59,11.30
2008,09,15,01,00,11.30
2008,09,15,01,01,11.30
2008,09,15,01,02,11.30
2008,09,15,01,03,11.30
2008,09,15,01,04,11.30
2008,09,15,01,05,11.30
2008,09,15,01,06,11.30
2008,09,15,01,07,11.30
2008,09,15,01,08,11.30
2008,09,15,01,09,11.30
2008,09,15,01,10,11.20
2008,09,15,01,11,11.20
2008,09,15,01,12,11.20
2008,09,15,01,13,11.20
2008,09,15,01,14,11.20
2008,09,15,01,15,11.20
2008,09,15,01,16,11.20
2008,09,15,01,17,11.20
2008,09,15,01,18,11.20
2008,09,15,01,19,11.10
2008,09,15,01,20,11.10
2008,09,15,01,21,11.10
2008,09,15,01,22,11.10
2008,09,15,01,23,11.10
2008,09,15,01,24,11.10
2008,09,15,01,25,11.10
2008,09,15,01,26,11.10
2008,09,15,01,27,11.10
2008,09,15,01,28,11.10
2008,09,15,01,29,11.10
2008,09,15,01,30,11.10
2008,09,15,01,31,11.10
2008,09,15,01,32,11.10
2008,09,15,01,33,11.10
2008,09,15,01,34,11.10
2008,09,15,01,35,11.10
2008,09,15,01,36,11.10
2008,09,15,01,37,11.00
2008,09,15,01,38,10.90
2008,09,15,01,39,10.90
2008,09,15,01,40,10.90
2008,09,15,01,41,10.90
2008,09,15,01,42,10.90
2008,09,15,01,43,10.90
2008,09,15,01,44,10.90
2008,09,15,01,45,10.80
2008,09,15,01,46,10.80
2008,09,15,01,47,10.80
2008,09,15,01,48,10.70
2008,09,15,01,49,10.70
2008,09,15,01,50,10.70
2008,09,15,01,51,10.70
2008,09,15,01,52,10.70
2008,09,15,01,53,10.70
2008,09,15,01,54,10.70
2008,09,15,01,55,10.70
2008,09,15,01,56,10.70
2008,09,15,01,57,10.80
2008,09,15,01,58,10.80
2008,09,15,01,59,10.80
2008,09,15,02,00,10.80
2008,09,15,02,01,10.80
2008,09,15,02,02,10.80
2008,09,15,02,03,10.80
2008,09,15,02,04,10.80
2008,09,15,02,05,10.80
2008,09,15,02,06,10.80
2008,09,15,02,07,10.80
2008,09,15,02,08,10.80
2008,09,15,02,09,10.80
2008,09,15,02,10,10.80
2008,09,15,02,11,10.80
2008,09,15,02,12,10.80
2008,09,15,02,13,10.80
2008,09,15,02,14,10.80
2008,09,15,02,15,10.70
2008,09,15,02,16,10.70
2008,09,15,02,17,10.70
2008,09,15,02,18,10.70
2008,09,15,02,19,10.70
2008,09,15,02,20,10.70
2008,09,15,02,21,10.70
2008,09,15,02,22,10.70
2008,09,15,02,23,10.70
2008,09,15,02,24,10.60
2008,09,15,02,25,10.60
2008,09,15,02,26,10.60
2008,09,15,02,27,10.60
2008,09,15,02,28,10.60
2008,09,15,02,29,10.60
2008,09,15,02,30,10.60
2008,09,15,02,31,10.60
2008,09,15,02,32,10.60
2008,09,15,02,33,10.60
2008,09,15,02,34,10.60
2008,09,15,02,35,10.60
2008,09,15,02,36,10.60
2008,09,15,02,37,10.50
2008,09,15,02,38,10.40
2008,09,15,02,39,10.40
2008,09,15,02,40,10.40
2008,09,15,02,41,10.40
2008,09,15,02,42,10.40
2008,09,15,02,43,10.40
2008,09,15,02,44,10.40
2008,09,15,02,45,10.40
2008,09,15,02,46,10.40
2008,09,15,02,47,10.40
2008,09,15,02,48,10.40
2008,09,15,02,49,10.40
2008,09,15,02,50,10.40
2008,09,15,02,51,10.40
2008,09,15,02,52,10.40
2008,09,15,02,53,10.40
2008,09,15,02,54,10.40
2008,09,15,02,55,10.40
2008,09,15,02,56,10.40
2008,09,15,02,57,10.40
2008,09,15,02,58,10.40
2008,09,15,02,59,10.40
2008,09,15,03,00,10.40
2008,09,15,03,01,10.40
2008,09,15,03,02,10.40
2008,09,15,03,03,10.40
2008,09,15,03,04,10.40
2008,09,15,03,05,10.40
2008,09,15,03,06,10.40
2008,09,15,03,07,10.40
2008,09,15,03,08,10.40
2008,09,15,03,09,10.40
2008,09,15,03,10,10.40
2008,09,15,03,11,10.40
2008,09,15,03,12,10.40
2008,09,15,03,13,10.40
2008,09,15,03,14,10.40
2008,09,15,03,15,10.30
2008,09,15,03,16,10.30
2008,09,15,03,17,10.30
2008,09,15,03,18,10.30
2008,09,15,03,19,10.30
2008,09,15,03,20,10.30
2008,09,15,03,21,10.30
2008,09,15,03,22,10.30
2008,09,15,03,23,10.30
2008,09,15,03,24,10.30
2008,09,15,03,25,10.30
2008,09,15,03,26,10.30
2008,09,15,03,27,10.30
2008,09,15,03,28,10.30
2008,09,15,03,29,10.30
2008,09,15,03,30,10.30
2008,09,15,03,31,10.30
2008,09,15,03,32,10.20
2008,09,15,03,33,10.20
2008,09,15,03,34,10.20
2008,09,15,03,35,10.20
2008,09,15,03,36,10.20
2008,09,15,03,37,10.20
2008,09,15,03,38,10.20
2008,09,15,03,39,10.10
2008,09,15,03,40,10.10
2008,09,15,03,41,10.10
2008,09,15,03,42,10.10
2008,09,15,03,43,10.10
2008,09,15,03,44,10.10
2008,09,15,03,45,10.10
2008,09,15,03,46,10.10
2008,09,15,03,47,10.10
2008,09,15,03,48,10.10
2008,09,15,03,49,10.10
2008,09,15,03,50,10.10
2008,09,15,03,51,10.10
2008,09,15,03,52,10.10
2008,09,15,03,53,10.10
2008,09,15,03,54,10.10
2008,09,15,03,55,10.10
2008,09,15,03,56,10.10
2008,09,15,03,57,10.00
2008,09,15,03,58,9.90
2008,09,15,03,59,9.90
2008,09,15,04,00,9.90
2008,09,15,04,01,9.90
2008,09,15,04,02,9.90
2008,09,15,04,03,9.90
2008,09,15,04,04,9.90
2008,09,15,04,05,9.90
2008,09,15,04,06,9.90
2008,09,15,04,07,9.90
2008,09,15,04,08,9.90
2008,09,15,04,09,9.90
2008,09,15,04,10,9.80
2008,09,15,04,11,9.80
2008,09,15,04,12,9.80
2008,09,15,04,13,9.80
2008,09,15,04,14,9.80
2008,09,15,04,15,9.80
2008,09,15,04,16,9.80
2008,09,15,04,17,9.80
2008,09,15,04,18,9.80
2008,09,15,04,19,9.80
2008,09,15,04,20,9.70
2008,09,15,04,21,9.70
2008,09,15,04,22,9.70
2008,09,15,04,23,9.70
2008,09,15,04,24,9.70
2008,09,15,04,25,9.70
2008,09,15,04,26,9.70
2008,09,15,04,27,9.70
2008,09,15,04,28,9.70
2008,09,15,04,29,9.70
2008,09,15,04,30,9.80
2008,09,15,04,31,9.80
2008,09,15,04,32,9.80
2008,09,15,04,33,9.80
2008,09,15,04,34,9.80
2008,09,15,04,35,9.80
2008,09,15,04,36,9.70
2008,09,15,04,37,9.70
2008,09,15,04,38,9.70
2008,09,15,04,39,9.70
2008,09,15,04,40,9.70
2008,09,15,04,41,9.70
2008,09,15,04,42,9.70
2008,09,15,04,43,9.60
2008,09,15,04,44,9.60
2008,09,15,04,45,9.60
2008,09,15,04,46,9.60
2008,09,15,04,47,9.60
2008,09,15,04,48,9.60
2008,09,15,04,49,9.60
2008,09,15,04,50,9.60
2008,09,15,04,51,9.60
2008,09,15,04,52,9.70
2008,09,15,04,53,9.70
2008,09,15,04,54,9.70
2008,09,15,04,55,9.70
2008,09,15,04,56,9.70
2008,09,15,04,57,9.70
2008,09,15,04,58,9.70
2008,09,15,04,59,9.70
2008,09,15,05,00,9.70
2008,09,15,05,01,9.60
2008,09,15,05,02,9.60
2008,09,15,05,03,9.60
2008,09,15,05,04,9.60
2008,09,15,05,05,9.60
2008,09,15,05,06,9.60
2008,09,15,05,07,9.60
2008,09,15,05,08,9.60
2008,09,15,05,09,9.60
2008,09,15,05,10,9.60
2008,09,15,05,11,9.60
2008,09,15,05,12,9.60
2008,09,15,05,13,9.60
2008,09,15,05,14,9.60
2008,09,15,05,15,9.60
2008,09,15,05,16,9.60
2008,09,15,05,17,9.60
2008,09,15,05,18,9.60
2008,09,15,05,19,9.60
2008,09,15,05,20,9.60
2008,09,15,05,21,9.60
2008,09,15,05,22,9.60
2008,09,15,05,23,9.60
2008,09,15,05,24,9.60
2008,09,15,05,25,9.60
2008,09,15,05,26,9.60
2008,09,15,05,27,9.60
2008,09,15,05,28,9.60
2008,09,15,05,29,9.50
2008,09,15,05,30,9.50
2008,09,15,05,31,9.50
2008,09,15,05,32,9.50
2008,09,15,05,33,9.50
2008,09,15,05,34,9.50
2008,09,15,05,35,9.50
2008,09,15,05,36,9.50
2008,09,15,05,37,9.50
2008,09,15,05,38,9.50
2008,09,15,05,39,9.50
2008,09,15,05,40,9.50
2008,09,15,05,41,9.50
2008,09,15,05,42,9.50
2008,09,15,05,43,9.50
2008,09,15,05,44,9.50
2008,09,15,05,45,9.60
2008,09,15,05,46,9.60
2008,09,15,05,47,9.60
2008,09,15,05,48,9.60
2008,09,15,05,49,9.60
2008,09,15,05,50,9.60
2008,09,15,05,51,9.60
2008,09,15,05,52,9.50
2008,09,15,05,53,9.60
2008,09,15,05,54,9.60
2008,09,15,05,55,9.60
2008,09,15,05,56,9.60
2008,09,15,05,57,9.50
2008,09,15,05,58,9.50
2008,09,15,05,59,9.50
2008,09,15,06,00,9.50
2008,09,15,06,01,9.40
2008,09,15,06,02,9.40
2008,09,15,06,03,9.40
2008,09,15,06,04,9.30
2008,09,15,06,05,9.30
2008,09,15,06,06,9.30
2008,09,15,06,07,9.30
2008,09,15,06,08,9.30
2008,09,15,06,09,9.30
2008,09,15,06,10,9.30
2008,09,15,06,11,9.30
2008,09,15,06,12,9.30
2008,09,15,06,13,9.30
2008,09,15,06,14,9.30
2008,09,15,06,15,9.30
2008,09,15,06,16,9.30
2008,09,15,06,17,9.30
2008,09,15,06,18,9.30
2008,09,15,06,19,9.30
2008,09,15,06,20,9.20
2008,09,15,06,21,9.20
2008,09,15,06,22,9.20
2008,09,15,06,23,9.20
2008,09,15,06,24,9.20
2008,09,15,06,25,9.20
2008,09,15,06,26,9.20
2008,09,15,06,27,9.10
2008,09,15,06,28,9.10
2008,09,15,06,29,9.10
2008,09,15,06,30,9.10
2008,09,15,06,31,9.10
2008,09,15,06,32,9.10
2008,09,15,06,33,9.10
2008,09,15,06,34,9.10
2008,09,15,06,35,9.10
2008,09,15,06,36,9.10
2008,09,15,06,37,9.10
2008,09,15,06,38,9.10
2008,09,15,06,39,9.10
2008,09,15,06,40,9.10
2008,09,15,06,41,9.00
2008,09,15,06,42,9.00
2008,09,15,06,43,9.00
2008,09,15,06,44,9.00
2008,09,15,06,45,9.00
2008,09,15,06,46,9.00
2008,09,15,06,47,9.00
2008,09,15,06,48,9.00
2008,09,15,06,49,9.00
2008,09,15,06,50,8.90
2008,09,15,06,51,8.90
2008,09,15,06,52,8.90
2008,09,15,06,53,8.90
2008,09,15,06,54,8.90
2008,09,15,06,55,8.90
2008,09,15,06,56,8.80
2008,09,15,06,57,8.80
2008,09,15,06,58,8.80
2008,09,15,06,59,8.80
2008,09,15,07,00,8.80
2008,09,15,07,01,8.80
2008,09,15,07,02,8.80
2008,09,15,07,03,8.80
2008,09,15,07,04,8.80
2008,09,15,07,05,8.80
2008,09,15,07,06,8.80
2008,09,15,07,07,8.80
2008,09,15,07,08,8.80
2008,09,15,07,09,8.80
2008,09,15,07,10,8.80
2008,09,15,07,11,8.80
2008,09,15,07,12,8.80
2008,09,15,07,13,8.90
2008,09,15,07,14,8.90
2008,09,15,07,15,8.90
2008,09,15,07,16,8.90
2008,09,15,07,17,8.90
2008,09,15,07,18,8.90
2008,09,15,07,19,9.00
2008,09,15,07,20,9.00
2008,09,15,07,21,9.10
2008,09,15,07,22,9.10
2008,09,15,07,23,9.20
2008,09,15,07,24,9.20
2008,09,15,07,25,9.20
2008,09,15,07,26,9.30
2008,09,15,07,27,9.40
2008,09,15,07,28,9.50
2008,09,15,07,29,9.50
2008,09,15,07,30,9.60
2008,09,15,07,31,9.70
2008,09,15,07,32,9.70
2008,09,15,07,33,9.70
2008,09,15,07,34,9.80
2008,09,15,07,35,9.80
2008,09,15,07,36,9.90
2008,09,15,07,37,9.90
2008,09,15,07,38,10.00
2008,09,15,07,39,10.10
2008,09,15,07,40,10.10
2008,09,15,07,41,10.20
2008,09,15,07,42,10.20
2008,09,15,07,43,10.30
2008,09,15,07,44,10.30
2008,09,15,07,45,10.30
2008,09,15,07,46,10.30
2008,09,15,07,47,10.30
2008,09,15,07,48,10.30
2008,09,15,07,49,10.40
2008,09,15,07,50,10.40
2008,09,15,07,51,10.50
2008,09,15,07,52,10.60
2008,09,15,07,53,10.70
2008,09,15,07,54,10.80
2008,09,15,07,55,10.90
2008,09,15,07,56,10.90
2008,09,15,07,57,11.00
2008,09,15,07,58,11.10
2008,09,15,07,59,11.20
2008,09,15,08,00,11.20
2008,09,15,08,01,11.20
2008,09,15,08,02,11.20
2008,09,15,08,03,11.30
2008,09,15,08,04,11.20
2008,09,15,08,05,11.20
2008,09,15,08,06,11.20
2008,09,15,08,07,11.20
2008,09,15,08,08,11.20
2008,09,15,08,09,11.10
2008,09,15,08,10,11.10
2008,09,15,08,11,11.20
2008,09,15,08,12,11.20
2008,09,15,08,13,11.30
2008,09,15,08,14,11.40
2008,09,15,08,15,11.50
2008,09,15,08,16,11.60
2008,09,15,08,17,11.70
2008,09,15,08,18,11.80
2008,09,15,08,19,11.90
2008,09,15,08,20,12.00
2008,09,15,08,21,12.10
2008,09,15,08,22,12.20
2008,09,15,08,23,12.30
2008,09,15,08,24,12.40
2008,09,15,08,25,12.50
2008,09,15,08,26,12.60
2008,09,15,08,27,12.80
2008,09,15,08,28,12.90
2008,09,15,08,29,13.10
2008,09,15,08,30,13.20
2008,09,15,08,31,13.30
2008,09,15,08,32,13.50
2008,09,15,08,33,13.60
2008,09,15,08,34,13.80
2008,09,15,08,35,13.90
2008,09,15,08,36,14.10
2008,09,15,08,37,14.20
2008,09,15,08,38,14.30
2008,09,15,08,39,14.50
2008,09,15,08,40,14.60
2008,09,15,08,41,14.80
2008,09,15,08,42,14.90
2008,09,15,08,43,15.00
2008,09,15,08,44,15.10
2008,09,15,08,45,15.10
2008,09,15,08,46,15.30
2008,09,15,08,47,15.40
2008,09,15,08,48,15.50
2008,09,15,08,49,15.50
2008,09,15,08,50,15.60
2008,09,15,08,51,15.70
2008,09,15,08,52,15.80
2008,09,15,08,53,16.00
2008,09,15,08,54,16.10
2008,09,15,08,55,16.20
2008,09,15,08,56,16.30
2008,09,15,08,57,16.40
2008,09,15,08,58,16.40
2008,09,15,08,59,16.60
2008,09,15,09,00,16.70
2008,09,15,09,01,16.70
2008,09,15,09,02,16.80
2008,09,15,09,03,16.80
2008,09,15,09,04,16.90
2008,09,15,09,05,16.90
2008,09,15,09,06,16.90
2008,09,15,09,07,16.90
2008,09,15,09,08,17.00
2008,09,15,09,09,17.00
2008,09,15,09,10,17.10
2008,09,15,09,11,17.10
2008,09,15,09,12,17.20
2008,09,15,09,13,17.30
2008,09,15,09,14,17.30
2008,09,15,09,15,17.40
2008,09,15,09,16,17.40
2008,09,15,09,17,17.40
2008,09,15,09,18,17.30
2008,09,15,09,19,17.40
2008,09,15,09,20,17.40
2008,09,15,09,21,17.40
2008,09,15,09,22,17.50
2008,09,15,09,23,17.50
2008,09,15,09,24,17.60
2008,09,15,09,25,17.70
2008,09,15,09,26,17.80
2008,09,15,09,27,17.80
2008,09,15,09,28,17.90
2008,09,15,09,29,18.10
2008,09,15,09,30,18.20
2008,09,15,09,31,18.30
2008,09,15,09,32,18.30
2008,09,15,09,33,18.30
2008,09,15,09,34,18.40
2008,09,15,09,35,18.40
2008,09,15,09,36,18.50
2008,09,15,09,37,18.60
2008,09,15,09,38,18.60
2008,09,15,09,39,18.70
2008,09,15,09,40,18.70
2008,09,15,09,41,18.80
2008,09,15,09,42,18.90
2008,09,15,09,43,18.90
2008,09,15,09,44,19.00
2008,09,15,09,45,19.10
2008,09,15,09,46,19.20
2008,09,15,09,47,19.20
2008,09,15,09,48,19.20
2008,09,15,09,49,19.20
2008,09,15,09,50,19.20
2008,09,15,09,51,19.20
2008,09,15,09,52,19.20
2008,09,15,09,53,19.20
2008,09,15,09,54,19.10
2008,09,15,09,55,19.20
2008,09,15,09,56,19.20
2008,09,15,09,57,19.30
2008,09,15,09,58,19.40
2008,09,15,09,59,19.40
2008,09,15,10,00,19.50
2008,09,15,10,01,19.50
2008,09,15,10,02,19.60
2008,09,15,10,03,19.70
2008,09,15,10,04,19.80
2008,09,15,10,05,20.00
2008,09,15,10,06,20.10
2008,09,15,10,07,20.20
2008,09,15,10,08,20.20
2008,09,15,10,09,20.20
2008,09,15,10,10,20.20
2008,09,15,10,11,20.30
2008,09,15,10,12,20.30
2008,09,15,10,13,20.20
2008,09,15,10,14,20.20
2008,09,15,10,15,20.20
2008,09,15,10,16,20.20
2008,09,15,10,17,20.30
2008,09,15,10,18,20.30
2008,09,15,10,19,20.40
2008,09,15,10,20,20.40
2008,09,15,10,21,20.40
2008,09,15,10,22,20.40
2008,09,15,10,23,20.40
2008,09,15,10,24,20.40
2008,09,15,10,25,20.40
2008,09,15,10,26,20.50
2008,09,15,10,27,20.50
2008,09,15,10,28,20.60
2008,09,15,10,29,20.60
2008,09,15,10,30,20.70
2008,09,15,10,31,20.70
2008,09,15,10,32,20.80
2008,09,15,10,33,20.80
2008,09,15,10,34,20.80
2008,09,15,10,35,20.80
2008,09,15,10,36,20.90
2008,09,15,10,37,20.80
2008,09,15,10,38,20.80
2008,09,15,10,39,20.90
2008,09,15,10,40,20.90
2008,09,15,10,41,20.90
2008,09,15,10,42,20.90
2008,09,15,10,43,21.00
2008,09,15,10,44,21.00
2008,09,15,10,45,21.00
2008,09,15,10,46,21.10
2008,09,15,10,47,21.10
2008,09,15,10,48,21.20
2008,09,15,10,49,21.30
2008,09,15,10,50,21.30
2008,09,15,10,51,21.40
2008,09,15,10,52,21.40
2008,09,15,10,53,21.40
2008,09,15,10,54,21.40
2008,09,15,10,55,21.50
2008,09,15,10,56,21.60
2008,09,15,10,57,21.60
2008,09,15,10,58,21.60
2008,09,15,10,59,21.60
2008,09,15,11,00,21.60
2008,09,15,11,01,21.60
2008,09,15,11,02,21.70
2008,09,15,11,03,21.70
2008,09,15,11,04,21.80
2008,09,15,11,05,21.80
2008,09,15,11,06,21.80
2008,09,15,11,07,21.90
2008,09,15,11,08,21.90
2008,09,15,11,09,21.90
2008,09,15,11,10,21.90
2008,09,15,11,11,21.90
2008,09,15,11,12,21.90
2008,09,15,11,13,22.00
2008,09,15,11,14,22.00
2008,09,15,11,15,22.10
2008,09,15,11,16,22.10
2008,09,15,11,17,22.00
2008,09,15,11,18,22.00
2008,09,15,11,19,22.00
2008,09,15,11,20,22.10
2008,09,15,11,21,22.10
2008,09,15,11,22,22.10
2008,09,15,11,23,22.00
2008,09,15,11,24,22.00
2008,09,15,11,25,22.00
2008,09,15,11,26,22.00
2008,09,15,11,27,22.00
2008,09,15,11,28,22.00
2008,09,15,11,29,22.10
2008,09,15,11,30,22.20
2008,09,15,11,31,22.20
2008,09,15,11,32,22.30
2008,09,15,11,33,22.30
2008,09,15,11,34,22.30
2008,09,15,11,35,22.30
2008,09,15,11,36,22.40
2008,09,15,11,37,22.40
2008,09,15,11,38,22.50
2008,09,15,11,39,22.50
2008,09,15,11,40,22.60
2008,09,15,11,41,22.70
2008,09,15,11,42,22.70
2008,09,15,11,43,22.80
2008,09,15,11,44,22.80
2008,09,15,11,45,22.70
2008,09,15,11,46,22.70
2008,09,15,11,47,22.70
2008,09,15,11,48,22.70
2008,09,15,11,49,22.80
2008,09,15,11,50,22.80
2008,09,15,11,51,22.80
2008,09,15,11,52,22.80
2008,09,15,11,53,22.80
2008,09,15,11,54,22.90
2008,09,15,11,55,22.90
2008,09,15,11,56,22.90
2008,09,15,11,57,22.90
2008,09,15,11,58,22.80
2008,09,15,11,59,22.70
2008,09,15,12,00,22.70
2008,09,15,12,01,22.70
2008,09,15,12,02,22.80
2008,09,15,12,03,22.80
2008,09,15,12,04,22.80
2008,09,15,12,05,22.90
2008,09,15,12,06,22.90
2008,09,15,12,07,22.90
2008,09,15,12,08,23.00
2008,09,15,12,09,23.10
2008,09,15,12,10,23.10
2008,09,15,12,11,23.10
2008,09,15,12,12,23.10
2008,09,15,12,13,23.10
2008,09,15,12,14,23.10
2008,09,15,12,15,23.10
2008,09,15,12,16,23.10
2008,09,15,12,17,23.10
2008,09,15,12,18,23.10
2008,09,15,12,19,23.20
2008,09,15,12,20,23.20
2008,09,15,12,21,23.30
2008,09,15,12,22,23.40
2008,09,15,12,23,23.50
2008,09,15,12,24,23.60
2008,09,15,12,25,23.60
2008,09,15,12,26,23.60
2008,09,15,12,27,23.60
2008,09,15,12,28,23.70
2008,09,15,12,29,23.80
2008,09,15,12,30,23.80
2008,09,15,12,31,23.80
2008,09,15,12,32,23.70
2008,09,15,12,33,23.70
2008,09,15,12,34,23.70
2008,09,15,12,35,23.70
2008,09,15,12,36,23.70
2008,09,15,12,37,23.70
2008,09,15,12,38,23.70
2008,09,15,12,39,23.70
2008,09,15,12,40,23.70
2008,09,15,12,41,23.70
2008,09,15,12,42,23.70
2008,09,15,12,43,23.70
2008,09,15,12,44,23.70
2008,09,15,12,45,23.70
2008,09,15,12,46,23.70
2008,09,15,12,47,23.70
2008,09,15,12,48,23.70
2008,09,15,12,49,23.70
2008,09,15,12,50,23.70
2008,09,15,12,51,23.70
2008,09,15,12,52,23.70
2008,09,15,12,53,23.80
2008,09,15,12,54,23.90
2008,09,15,12,55,23.90
2008,09,15,12,56,23.90
2008,09,15,12,57,23.80
2008,09,15,12,58,23.70
2008,09,15,12,59,23.70
2008,09,15,13,00,23.80
2008,09,15,13,01,23.90
2008,09,15,13,02,23.90
2008,09,15,13,03,24.00
2008,09,15,13,04,24.10
2008,09,15,13,05,24.20
2008,09,15,13,06,24.40
2008,09,15,13,07,24.50
2008,09,15,13,08,24.60
2008,09,15,13,09,24.60
2008,09,15,13,10,24.60
2008,09,15,13,11,24.50
2008,09,15,13,12,24.50
2008,09,15,13,13,24.40
2008,09,15,13,14,24.40
2008,09,15,13,15,24.40
2008,09,15,13,16,24.40
2008,09,15,13,17,24.40
2008,09,15,13,18,24.40
2008,09,15,13,19,24.40
2008,09,15,13,20,24.40
2008,09,15,13,21,24.40
2008,09,15,13,22,24.40
2008,09,15,13,23,24.30
2008,09,15,13,24,24.30
2008,09,15,13,25,24.20
2008,09,15,13,26,24.20
2008,09,15,13,27,24.30
2008,09,15,13,28,24.30
2008,09,15,13,29,24.30
2008,09,15,13,30,24.30
2008,09,15,13,31,24.40
2008,09,15,13,32,24.40
2008,09,15,13,33,24.50
2008,09,15,13,34,24.60
2008,09,15,13,35,24.80
2008,09,15,13,36,24.90
2008,09,15,13,37,24.90
2008,09,15,13,38,25.00
2008,09,15,13,39,25.10
2008,09,15,13,40,25.10
2008,09,15,13,41,25.00
2008,09,15,13,42,24.90
2008,09,15,13,43,24.90
2008,09,15,13,44,24.90
2008,09,15,13,45,24.90
2008,09,15,13,46,24.90
2008,09,15,13,47,25.00
2008,09,15,13,48,25.00
2008,09,15,13,49,24.90
2008,09,15,13,50,24.80
2008,09,15,13,51,24.90
2008,09,15,13,52,24.90
2008,09,15,13,53,25.00
2008,09,15,13,54,25.10
2008,09,15,13,55,25.00
2008,09,15,13,56,25.00
2008,09,15,13,57,25.00
2008,09,15,13,58,25.00
2008,09,15,13,59,25.00
2008,09,15,14,00,25.10
2008,09,15,14,01,25.20
2008,09,15,14,02,25.20
2008,09,15,14,03,25.20
2008,09,15,14,04,25.10
2008,09,15,14,05,25.10
2008,09,15,14,06,25.20
2008,09,15,14,07,25.20
2008,09,15,14,08,25.10
2008,09,15,14,09,25.10
2008,09,15,14,10,25.10
2008,09,15,14,11,25.20
2008,09,15,14,12,25.20
2008,09,15,14,13,25.30
2008,09,15,14,14,25.30
2008,09,15,14,15,25.30
2008,09,15,14,16,25.30
2008,09,15,14,17,25.30
2008,09,15,14,18,25.40
2008,09,15,14,19,25.30
2008,09,15,14,20,25.30
2008,09,15,14,21,25.30
2008,09,15,14,22,25.20
2008,09,15,14,23,25.20
2008,09,15,14,24,25.20
2008,09,15,14,25,25.30
2008,09,15,14,26,25.40
2008,09,15,14,27,25.40
2008,09,15,14,28,25.40
2008,09,15,14,29,25.40
2008,09,15,14,30,25.40
2008,09,15,14,31,25.50
2008,09,15,14,32,25.50
2008,09,15,14,33,25.60
2008,09,15,14,34,25.70
2008,09,15,14,35,25.70
2008,09,15,14,36,25.70
2008,09,15,14,37,25.70
2008,09,15,14,38,25.60
2008,09,15,14,39,25.60
2008,09,15,14,40,25.60
2008,09,15,14,41,25.70
2008,09,15,14,42,25.80
2008,09,15,14,43,25.80
2008,09,15,14,44,25.90
2008,09,15,14,45,26.00
2008,09,15,14,46,26.00
2008,09,15,14,47,26.00
2008,09,15,14,48,26.10
2008,09,15,14,49,26.00
2008,09,15,14,50,25.90
2008,09,15,14,51,25.90
2008,09,15,14,52,25.90
2008,09,15,14,53,25.90
2008,09,15,14,54,25.90
2008,09,15,14,55,26.00
2008,09,15,14,56,26.10
2008,09,15,14,57,26.10
2008,09,15,14,58,25.90
2008,09,15,14,59,25.80
2008,09,15,15,00,25.50
2008,09,15,15,01,25.30
2008,09,15,15,02,25.20
2008,09,15,15,03,25.20
2008,09,15,15,04,25.10
2008,09,15,15,05,25.10
2008,09,15,15,06,25.10
2008,09,15,15,07,25.00
2008,09,15,15,08,25.00
2008,09,15,15,09,25.00
2008,09,15,15,10,25.00
2008,09,15,15,11,24.90
2008,09,15,15,12,24.90
2008,09,15,15,13,24.90
2008,09,15,15,14,24.90
2008,09,15,15,15,24.80
2008,09,15,15,16,24.80
2008,09,15,15,17,24.80
2008,09,15,15,18,24.80
2008,09,15,15,19,24.80
2008,09,15,15,20,24.80
2008,09,15,15,21,24.80
2008,09,15,15,22,24.90
2008,09,15,15,23,24.90
2008,09,15,15,24,25.00
2008,09,15,15,25,24.90
2008,09,15,15,26,24.90
2008,09,15,15,27,24.90
2008,09,15,15,28,24.90
2008,09,15,15,29,24.80
2008,09,15,15,30,24.80
2008,09,15,15,31,24.90
2008,09,15,15,32,24.90
2008,09,15,15,33,24.90
2008,09,15,15,34,24.80
2008,09,15,15,35,24.80
2008,09,15,15,36,24.70
2008,09,15,15,37,24.80
2008,09,15,15,38,24.70
2008,09,15,15,39,24.70
2008,09,15,15,40,24.80
2008,09,15,15,41,24.80
2008,09,15,15,42,24.90
2008,09,15,15,43,24.90
2008,09,15,15,44,25.00
2008,09,15,15,45,25.00
2008,09,15,15,46,24.90
2008,09,15,15,47,24.90
2008,09,15,15,48,24.90
2008,09,15,15,49,24.90
2008,09,15,15,50,24.90
2008,09,15,15,51,24.90
2008,09,15,15,52,25.00
2008,09,15,15,53,24.90
2008,09,15,15,54,24.90
2008,09,15,15,55,24.90
2008,09,15,15,56,24.80
2008,09,15,15,57,24.70
2008,09,15,15,58,24.60
2008,09,15,15,59,24.50
2008,09,15,16,00,24.50
2008,09,15,16,01,24.40
2008,09,15,16,02,24.30
2008,09,15,16,03,24.30
2008,09,15,16,04,24.40
2008,09,15,16,05,24.40
2008,09,15,16,06,24.50
2008,09,15,16,07,24.50
2008,09,15,16,08,24.60
2008,09,15,16,09,24.80
2008,09,15,16,10,24.80
2008,09,15,16,11,24.90
2008,09,15,16,12,24.90
2008,09,15,16,13,24.90
2008,09,15,16,14,24.80
2008,09,15,16,15,24.80
2008,09,15,16,16,24.80
2008,09,15,16,17,24.80
2008,09,15,16,18,24.70
2008,09,15,16,19,24.70
2008,09,15,16,20,24.80
2008,09,15,16,21,24.90
2008,09,15,16,22,25.00
2008,09,15,16,23,25.10
2008,09,15,16,24,25.30
2008,09,15,16,25,25.40
2008,09,15,16,26,25.40
2008,09,15,16,27,25.40
2008,09,15,16,28,25.30
2008,09,15,16,29,25.30
2008,09,15,16,30,25.10
2008,09,15,16,31,25.00
2008,09,15,16,32,24.90
2008,09,15,16,33,24.90
2008,09,15,16,34,24.90
2008,09,15,16,35,25.00
2008,09,15,16,36,25.10
2008,09,15,16,37,25.20
2008,09,15,16,38,25.00
2008,09,15,16,39,24.90
2008,09,15,16,40,24.90
2008,09,15,16,41,25.00
2008,09,15,16,42,25.00
2008,09,15,16,43,25.00
2008,09,15,16,44,24.90
2008,09,15,16,45,24.90
2008,09,15,16,46,24.80
2008,09,15,16,47,24.80
2008,09,15,16,48,24.70
2008,09,15,16,49,24.60
2008,09,15,16,50,24.50
2008,09,15,16,51,24.40
2008,09,15,16,52,24.30
2008,09,15,16,53,24.30
2008,09,15,16,54,24.30
2008,09,15,16,55,24.30
2008,09,15,16,56,24.30
2008,09,15,16,57,24.30
2008,09,15,16,58,24.30
2008,09,15,16,59,24.30
2008,09,15,17,00,24.30
2008,09,15,17,01,24.20
2008,09,15,17,02,24.20
2008,09,15,17,03,24.20
2008,09,15,17,04,24.20
2008,09,15,17,05,24.20
2008,09,15,17,06,24.20
2008,09,15,17,07,24.30
2008,09,15,17,08,24.30
2008,09,15,17,09,24.30
2008,09,15,17,10,24.30
2008,09,15,17,11,24.30
2008,09,15,17,12,24.30
2008,09,15,17,13,24.30
2008,09,15,17,14,24.30
2008,09,15,17,15,24.20
2008,09,15,17,16,24.20
2008,09,15,17,17,24.10
2008,09,15,17,18,24.10
2008,09,15,17,19,24.10
2008,09,15,17,20,24.00
2008,09,15,17,21,23.90
2008,09,15,17,22,23.90
2008,09,15,17,23,24.00
2008,09,15,17,24,24.10
2008,09,15,17,25,24.10
2008,09,15,17,26,24.10
2008,09,15,17,27,24.10
2008,09,15,17,28,24.10
2008,09,15,17,29,24.10